Weather History for KBKF - January, 2013

Change the Weather History Date:

Sunday, January 6, 2013

  Actual Average Record
Temperature  
Mean Temperature 32 °F -  
Max Temperature 48 °F 43 °F 64 °F (2006)
Min Temperature 17 °F 20 °F -7 °F (2004)
Degree Days  
Heating Degree Days 32    
Moisture  
Dew Point 8 °F    
Average Humidity 39    
Maximum Humidity 64    
Minimum Humidity 19    
Precipitation  
Precipitation 0.00 in - - ()
Sea Level Pressure  
Sea Level Pressure 30.11 in    
Wind  
Wind Speed 8 mph (South)    
Max Wind Speed 12 mph    
Max Gust Speed -    
Averages and records for this station are not official NWS values.
T = Trace of Precipitation, MM = Missing Value Source: NWS Daily Summary

Daily Weather History Graph

Daily Weather History Graph

Search for Another Location

Airport or City:

Trip Planner

Search our weather history database for the weather conditions in past years. The results will help you decide how hot, cold, wet, or windy it might be!

Date:

Astronomy

Jan. 06, 2013 Rise Set
Actual Time 7:20 AM MST 4:50 PM MST
Civil Twilight 6:50 AM MST 5:20 PM MST
Nautical Twilight 6:16 AM MST 5:53 PM MST
Astronomical Twilight 5:43 AM MST 6:26 PM MST
Moon 1:37 AM MST (1/6) 12:18 PM MST (1/6)
Length of Visible Light 10h 30m
Length of Day
9h 29m
Waning Crescent, 32% of the Moon is Illuminated
Jan 6
Waning Crescent
Jan 11
New
Jan 18
First Quarter
Jan 26
Full
Feb 3
Last Quarter

Hourly Weather History & Observations

Time (MST) Temp. Windchill Dew Point Humidity Pressure Visibility Wind Dir Wind Speed Gust Speed Precip Events Conditions
12:55 AM 23.0 °F 12.4 °F 8.6 °F 54% 30.29 in 25.0 mi South 10.4 mph - N/A   Clear
1:55 AM 23.0 °F 11.7 °F 6.8 °F 50% 30.28 in 25.0 mi South 11.5 mph - N/A   Clear
2:55 AM 23.0 °F 11.7 °F 6.8 °F 50% 30.28 in 25.0 mi South 11.5 mph - N/A   Clear
3:55 AM 21.2 °F 10.9 °F 3.2 °F 46% 30.27 in 25.0 mi South 9.2 mph - N/A   Clear
4:55 AM 21.2 °F 9.5 °F 3.2 °F 46% 30.28 in 25.0 mi South 11.5 mph - N/A   Clear
5:55 AM 17.6 °F 6.4 °F -0.4 °F 45% 30.30 in 25.0 mi SSW 9.2 mph - N/A   Clear
6:55 AM 19.4 °F 7.9 °F -0.4 °F 42% 30.30 in 70.0 mi South 10.4 mph - N/A   Clear
7:55 AM 17.6 °F 5.7 °F -2.2 °F 42% 30.29 in 70.0 mi South 10.4 mph - N/A   Partly Cloudy
8:55 AM 28.4 °F 20.4 °F 1.4 °F 31% 30.23 in 70.0 mi South 8.1 mph - N/A   Partly Cloudy
9:55 AM 35.6 °F 31.7 °F 3.2 °F 26% 30.19 in 70.0 mi SW 4.6 mph - N/A   Partly Cloudy
10:55 AM 41.0 °F - 3.2 °F 21% 30.13 in 70.0 mi Calm Calm - N/A   Partly Cloudy
11:55 AM 44.6 °F - 5.0 °F 20% 30.06 in 70.0 mi Calm Calm - N/A   Scattered Clouds
12:55 PM 48.2 °F - 6.8 °F 19% 30.02 in 70.0 mi North 4.6 mph - N/A   Mostly Cloudy
1:55 PM 48.2 °F - 8.6 °F 20% 29.99 in 70.0 mi NE 4.6 mph - N/A   Mostly Cloudy
2:55 PM 46.4 °F 43.5 °F 14.0 °F 27% 29.97 in 70.0 mi North 5.8 mph - N/A   Mostly Cloudy
3:55 PM 39.2 °F 33.6 °F 15.8 °F 39% 30.01 in 70.0 mi North 8.1 mph - N/A   Mostly Cloudy
4:55 PM 37.4 °F 33.8 °F 17.6 °F 45% 30.00 in 70.0 mi NNE 4.6 mph - N/A   Mostly Cloudy
5:55 PM 32.0 °F 27.5 °F 14.0 °F 48% 30.04 in 25.0 mi ENE 4.6 mph - N/A   Mostly Cloudy
6:55 PM 28.4 °F 23.3 °F 17.6 °F 64% 30.04 in 25.0 mi South 4.6 mph - N/A   Mostly Cloudy
7:55 PM 32.0 °F 28.7 °F 14.0 °F 48% 30.02 in 25.0 mi SSW 3.5 mph - N/A   Mostly Cloudy
8:55 PM 33.8 °F 28.6 °F 8.6 °F 35% 29.96 in 25.0 mi SW 5.8 mph - N/A   Mostly Cloudy
9:55 PM 35.6 °F 28.0 °F 12.2 °F 38% 29.92 in 25.0 mi South 10.4 mph - N/A   Mostly Cloudy
10:55 PM 35.6 °F 28.0 °F 12.2 °F 38% 29.91 in 25.0 mi South 10.4 mph - N/A   Mostly Cloudy
11:55 PM 37.4 °F 29.8 °F 12.2 °F 36% 29.89 in 25.0 mi SSW 11.5 mph - N/A   Overcast